Flag Weather past 2 weeks in Colorado Springs, Colorado, U.S.A.

Now
37 °F

Mostly cloudy.


Feels Like: 27 °F
Forecast: 24 / 38 °F
Wind: 17 mph from North

Location: City Of Colorado Springs Municipal Airport

Current Time: Nov 23, 2014 at 1:15:44 PM

Latest Report: Nov 23, 2014 at 11:54 AM


Visibility: 10 mi

Pressure: 29.75 "Hg

Humidity: 44%

Dew point: 17 °F

Location of Colorado SpringsLocation

Historic Weather in Colorado Springs — Graph

°F

Colorado Springs temperature yesterday

Maximum temperature yesterday: 60 °F (at 12:54 PM)
Minimum temperature yesterday: 24 °F (at 4:54 AM)
Average temperature yesterday: 45 °F

Past Weeks' High & Low Weather Summary

 TemperatureHumidityPressure
High67 °F (Nov 10, 10:54 AM)92% (Nov 11, 6:54 AM)30.70 "Hg (Nov 11, 6:54 AM)
Low-3 °F (Nov 13, 3:54 AM)11% (Nov 9, 12:54 PM)29.31 "Hg (Nov 10, 9:54 AM)
Average28 °F55%30.10 "Hg
* Reported Nov 8 11:54 AM — Nov 23 11:54 AM, Colorado Springs, Weather by CustomWeather, © 2014

Note: Actual official high and low records may vary slightly from our data, if they occured in-between our weather recording intervals... More about our weather records

Advertising

Colorado Springs weather history for previous 24 hours

 ConditionsComfort  
Time TempWeatherWind HumidityBarometerVisibility
11:54 AM
Nov 23
37 °FMostly cloudy.17 mph44%29.75 "Hg10 mi
10:54 AM35 °FMostly cloudy.15 mph54%29.77 "Hg10 mi
9:54 AM34 °FBroken clouds.17 mph61%29.75 "Hg10 mi
8:54 AM32 °FMore clouds than sun.16 mph73%29.75 "Hg10 mi
7:54 AM32 °FOvercast.15 mph69%29.72 "Hg10 mi
6:54 AM32 °FOvercast.14 mph69%29.68 "Hg9 mi
5:54 AM32 °FLight snow. Partly cloudy.18 mph79%29.65 "Hg9 mi
4:54 AM35 °FLight snow. Mostly cloudy.17 mph75%29.62 "Hg9 mi
3:54 AM38 °FPartly cloudy.26 mph68%29.56 "Hg10 mi
2:54 AM41 °FPassing clouds.15 mph47%29.50 "Hg10 mi
1:54 AM37 °FPartly cloudy.7 mph54%29.47 "Hg10 mi
12:54 AM47 °FPartly cloudy.14 mph37%29.40 "Hg10 mi
11:54 PM
Nov 22
44 °FPassing clouds.9 mph43%29.47 "Hg10 mi
10:54 PM46 °FPartly cloudy.6 mph40%29.49 "Hg10 mi
9:54 PM50 °FPassing clouds.16 mph35%29.49 "Hg10 mi
8:54 PM51 °FPassing clouds.23 mph31%29.53 "Hg10 mi
7:54 PM53 °FPartly cloudy.21 mph27%29.54 "Hg10 mi
6:54 PM55 °FPassing clouds.29 mph23%29.61 "Hg10 mi
5:54 PM56 °FMostly cloudy.20 mph20%29.58 "Hg10 mi
4:54 PM52 °FPartly cloudy.7 mph17%29.62 "Hg10 mi
3:54 PM56 °FMore clouds than sun.8 mph15%29.59 "Hg10 mi
2:54 PM57 °FBroken clouds.5 mph14%29.59 "Hg10 mi
1:54 PM59 °FBroken clouds.8 mph11%29.60 "Hg10 mi
Weather by CustomWeather, © 2014

See weather overviewHow to use our weather pages